Location: Killam
(52.7910°N, 111.8608°W)
Time: 04:52:53
(UTC+00:00)

Gurwin Techsat 1B - Pass Details

Date: 15 March 2026
Orbit: 809 x 812 km, 99.0° (Epoch: 15 April)

Event Time Altitude Azimuth Distance (km) Brightness Sun altitude
Rises 10:49:10 0° 32° (NNE) 3,342 12.9 -25.5°
Maximum altitude 10:54:55 10° 82° (E) 2,401 11.9 -24.8°
Drops below altitude 10° 10:54:56 10° 82° (E) 2,401 11.9 -24.8°
Sets 11:00:36 0° 131° (SE) 3,321 12.0 -24.1°
